SCP
0 0 0 0 0 0 0 0 0 0 0 0 0 0 0 0 0 0 0 0 0 0 0 0 0 0 0 0 0 0 0 0 0 0 0 0 0 0 0 0 0 0 0 0 0 0 0 0 0 0 0 0 0 0
0 0 0 0 0 0 0 0 0 0 0 0 0 0 0 0 0 0 0 0 0 0 0 0 0 0 0 0 0 0 0 0 0 0 0 0 0 0 0 0 0 0 0 0 0 0 0 0 0 0 0 0 0 0
0 0 0 0 0 0 0 0 0 0 0 0 0 0 0 0 0 0 0 0 0 0 0 0 0 0 0 0 0 0 0 0 0 0 0 0 0 0 0 0 0 0 0 0 0 0 0 0 0 0 0 0 0 0
0 0 0 0 0 0 0 0 0 0 0 0 0 0 0 0 0 0 0 0 0 0 0 0 0 0 0 0 0 0 0 0 0 0 0 0 0 0 0 0 0 0 0 0 0 0 0 0 0 0 0 0 0 0
0 0 0 0 0 0 0 0 0 0 0 0 0 0 0 0 0 0 0 0 0 0 0 0 0 0 0 0 0 0 0 0 0 0 0 0 0 0 0 0 0 0 0 0 0 0 0 0 0 0 0 0 0 0
0 0 0 0 0 0 0 0 0 0 0 0 0 0 0 0 0 0 0 0 0 0 0 0 0 0 0 0 0 0 0 0 0 0 0 0 0 0 0 0 0 0 0 0 0 0 0 0 0 0 0 0 0 0
0 0 0 0 0 0 0 0 0 0 0 0 0 0 0 0 0 0 0 0 0 0 0 0 0 0 0 0 0 0 0 0 0 0 0 0 0 0 0 0 0 0 0 0 0 0 0 0 0 0 0 0 0 0
0 0 0 0 0 0 0 0 0 0 0 0 0 0 0 0 0 0 0 0 0 0 0 0 0 0 0 0 0 0 0 0 0 0 0 0 0 0 0 0 0 0 0 0 0 0 0 0 0 0 0 0 0 0
0 0 0 0 0 0 0 0 0 0 0 0 0 0 0 0 0 0 0 0 0 0 0 0 0 0 0 0 0 0 0 0 0 0 0 0 0 0 0 0 0 0 0 0 0 0 0 0 0 0 0 0 0 0
0 0 0 0 0 0 0 0 0 0 0 0 0 0 0 0 0 0 0 0 0 0 0 0 0 0 0 0 0 0 0 0 0 0 0 0 0 0 0 0 0 0 0 0 0 0 0 0 0 0 0 0 0 0
0 0 0 0 0 0 0 0 0 0 0 0 0 0 0 0 0 0 0 0 0 0 0 0 0 0 0 0 0 0 0 0 0 0 0 0 0 0 0 0 0 0 0 0 0 0 0 0 0 0 0 0 0 0
0 0 0 0 0 0 0 0 0 0 0 0 0 0 0 0 0 0 0 0 0 0 0 0 0 0 0 0 0 0 0 0 0 0 0 0 0 0 0 0 0 0 0 0 0 0 0 0 0 0 0 0 0 0
0 0 0 0 0 0 0 0 0 0 0 0 0 0 0 0 0 0 0 0 0 0 0 0 0 0 0 0 0 0 0 0 0 0 0 0 0 0 0 0 0 0 0 0 0 0 0 0 0 0 0 0 0 0
0 0 0 0 0 0 0 0 0 0 0 0 0 0 0 0 0 0 0 0 0 0 0 0 0 0 0 0 0 0 0 0 0 0 0 0 0 0 0 0 0 0 0 0 0 0 0 0 0 0 0 0 0 0
0 0 0 0 0 0 0 0 0 0 0 0 0 0 0 0 0 0 0 0 0 0 0 0 0 0 0 0 0 0 0 0 0 0 0 0 0 0 0 0 0 0 0 0 0 0 0 0 0 0 0 0 0 0
0 0 0 0 0 0 0 0 0 0 0 0 0 0 0 0 0 0 0 0 0 0 0 0 0 0 0 0 0 0 0 0 0 0 0 0 0 0 0 0 0 0 0 0 0 0 0 0 0 0 0 0 0 0
0 0 0 0 0 0 0 0 0 0 0 0 0 0 0 0 0 0 0 0 0 0 0 0 0 0 0 0 0 0 0 0 0 0 0 0 0 0 0 0 0 0 0 0 0 0 0 0 0 0 0 0 0 0
0 0 0 0 0 0 0 0 0 0 0 0 0 0 0 0 0 0 0 0 0 0 0 0 0 0 0 0 0 0 0 0 0 0 0 0 0 0 0 0 0 0 0 0 0 0 0 0 0 0 0 0 0 0
0 0 0 0 0 0 0 0 0 0 0 0 0 0 0 0 0 0 0 0 0 0 0 0 0 0 0 0 0 0 0 0 0 0 0 0 0 0 0 0 0 0 0 0 0 0 0 0 0 0 0 0 0 0
0 0 0 0 0 0 0 0 0 0 0 0 0 0 0 0 0 0 0 0 0 0 0 0 0 0 0 0 0 0 0 0 0 0 0 0 0 0 0 0 0 0 0 0 0 0 0 0 0 0 0 0 0 0
0 0 0 0 0 0 0 0 0 0 0 0 0 0 0 0 0 0 0 0 0 0 0 0 0 0 0 0 0 0 0 0 0 0 0 0 0 0 0 0 0 0 0 0 0 0 0 0 0 0 0 0 0 0
0 0 0 0 0 0 0 0 0 0 0 0 0 0 0 0 0 0 0 0 0 0 0 0 0 0 0 0 0 0 0 0 0 0 0 0 0 0 0 0 0 0 0 0 0 0 0 0 0 0 0 0 0 0
0 0 0 0 0 0 0 0 0 0 0 0 0 0 0 0 0 0 0 0 0 0 0 0 0 0 0 0 0 0 0 0 0 0 0 0 0 0 0 0 0 0 0 0 0 0 0 0 0 0 0 0 0 0
-0 0 0 0 0 0 0 0 0 0 0 0 0 0 0 0 0 0 0 0 0 0 0 0 0 0 0 0 0 0 0 0 0 0 0 0 0 0 0 0 0 0 0 0 0 0 0 -0 0 -0 0 0 0 0
0 -0 0 0 0 0 0 0 0 0 0 0 0 0 0 0 0 0 0 0 0 0 0 0 0 0 0 0 0 0 0 0 0 0 0 0 0 0 0 0 0 0 0 0 0 0 -0 -0 -0 0 0 0 0 0
-0 -0 0 0 0 0 0 0 0 0 0 0 0 0 0 0 0 0 0 0 0 0 0 0 0 0 0 0 0 0 0 0 0 0 0 0 0 0 0 0 0 0 0 0 0 0 0 -0 0 0 0 0 0 0
-0 -0 -0 0 0 0 0 0 0 0 0 0 0 0 0 0 0 0 0 0 0 0 0 0 0 0 0 0 0 0 0 0 0 0 0 0 0 0 0 0 0 0 0 0 0 0 0 0 0 0 0 0 0 0
0 -0 0 -0 0 0 0 0 0 0 0 0 0 0 0 0 0 0 0 0 0 0 0 0 0 0 0 0 0 0 0 0 0 0 0 0 0 0 0 0 0 0 0 0 0 0 0 0 0 0 0 0 0 0
0 0 0 0 0 0 0 0 0 0 0 0 0 0 0 0 0 0 0 0 0 0 0 0 0 0 0 0 0 0 0 0 0 0 0 0 0 0 0 0 0 0 0 0 0 0 0 0 0 0 0 0 0 0
0 0 0 0 0 0 0 0 0 0 0 0 0 0 0 0 0 0 0 0 0 0 0 0 0 0 0 0 0 0 0 0 0 0 0 0 0 0 0 0 0 0 0 0 0 0 0 0 0 0 0 0 0 0
0 0 0 0 0 0 0 0 0 0 0 0 0 0 0 0 0 0 0 0 0 0 0 0 0 0 0 0 0 0 0 0 0 0 0 0 0 0 0 0 0 0 0 0 0 0 0 0 0 0 0 0 0 0
0 0 0 0 0 0 0 0 0 0 0 0 0 0 0 0 0 0 0 0 0 0 0 0 0 0 0 0 0 0 0 0 0 0 0 0 0 0 0 0 0 0 0 0 0 0 0 0 0 0 0 0 0 0
0 0 0 0 0 0 0 0 0 0 0 0 0 0 0 0 0 0 0 0 0 0 0 0 0 0 0 0 0 0 0 0 0 0 0 0 0 0 0 0 0 0 0 0 0 0 0 0 0 0 0 0 0 0
Wind_Speed_500mb
37 44 49 46 45 48 50 47 48 48 48 43 51 54 60 56 52 48 55 56 53 23 26 34 36 19 19 28 11 15 10 6 11 12 10 11 10 14 8 19 13 14 12 13 11 17 26 6 10 15 17 6 14 36
50 49 41 42 50 49 48 49 51 52 58 57 58 53 58 60 48 57 58 49 51 41 19 31 49 45 39 34 30 32 11 13 23 13 11 8 10 7 14 16 23 15 20 13 15 14 19 23 23 31 34 43 61 65
44 39 51 50 46 40 47 51 53 55 56 58 57 52 55 54 60 57 63 54 43 42 46 51 51 65 60 60 49 30 25 34 19 27 12 11 17 11 16 21 32 32 50 28 32 36 51 58 66 65 66 61 62 59
50 49 50 47 46 52 56 52 51 55 57 56 58 61 59 62 61 64 63 60 59 31 12 35 36 43 39 56 67 74 65 33 39 36 24 12 13 25 20 24 23 30 22 28 30 45 50 60 66 66 63 64 60 46
52 52 50 49 48 47 49 51 55 58 56 55 58 61 60 63 62 57 64 77 78 60 6 20 32 41 35 37 45 58 72 65 31 18 13 15 28 18 17 17 21 48 38 26 30 54 45 53 59 53 52 58 52 51
50 51 52 49 48 49 53 53 55 55 57 59 55 55 56 57 55 53 41 65 74 74 19 8 20 34 38 37 35 42 57 62 51 22 14 16 38 20 9 18 47 66 65 66 57 74 68 68 64 60 56 53 49 46
49 48 49 50 51 54 53 58 57 55 55 55 57 56 55 54 54 59 14 23 34 77 25 7 8 21 30 27 25 39 47 36 41 31 18 34 34 23 11 30 49 60 65 64 59 55 60 64 47 42 48 43 43 38
43 39 40 41 42 44 46 49 50 53 52 51 54 54 55 56 56 67 77 65 44 58 25 7 7 6 24 16 17 25 21 27 23 22 25 21 25 28 16 28 53 68 68 61 64 56 59 54 53 50 40 40 38 35
36 40 45 49 48 46 44 43 44 44 46 44 43 46 50 59 62 56 64 65 67 53 9 12 13 11 25 17 17 16 17 10 17 13 19 17 11 15 24 48 54 61 56 59 47 44 38 38 38 39 37 37 33 31
35 39 44 43 47 48 45 38 38 38 37 37 37 31 20 41 52 31 25 34 49 36 24 9 39 13 31 27 21 17 14 8 9 14 14 10 22 57 66 55 56 56 57 44 33 32 34 34 34 34 31 30 29 30
40 40 41 36 33 30 32 38 35 32 29 38 23 27 19 19 45 25 18 22 18 11 21 24 39 14 26 11 10 21 7 7 8 8 11 9 14 28 53 57 66 60 48 37 31 33 30 26 24 27 26 27 29 31
38 37 37 37 34 35 36 37 38 40 44 28 19 26 31 26 16 13 10 11 10 12 15 14 25 36 22 16 8 14 10 10 11 10 7 7 13 30 32 38 40 39 35 30 28 28 26 24 23 23 24 27 31 36
32 34 34 37 39 41 39 41 47 45 42 46 25 22 13 17 16 13 17 8 9 14 21 23 11 25 13 16 8 10 15 11 15 9 8 12 13 26 30 31 31 27 25 23 22 21 20 20 21 24 28 32 39 43
29 33 37 40 44 46 45 43 43 45 44 26 16 15 15 10 12 11 14 12 13 23 44 35 16 9 12 12 7 9 5 7 9 9 15 15 29 34 29 28 27 24 21 20 20 19 19 21 24 28 34 38 42 43
35 38 38 41 45 43 44 46 45 51 35 15 18 14 12 4 5 9 12 7 18 30 49 18 9 13 7 8 8 8 11 10 13 13 17 9 21 26 29 26 25 23 20 18 18 18 20 24 29 29 32 36 40 42
20 24 29 32 42 46 44 46 47 52 24 15 7 0 6 9 8 7 10 6 25 30 28 11 9 9 11 9 13 13 13 14 12 7 8 17 24 28 26 24 24 21 18 16 17 19 20 23 26 30 31 33 33 34
6 11 20 13 19 28 39 46 44 25 14 9 4 7 7 3 7 3 14 12 31 23 7 6 15 13 9 8 11 10 11 12 7 4 11 18 25 27 25 23 20 18 16 14 14 17 19 22 24 26 27 25 26 25
8 7 11 5 3 14 33 18 14 7 7 6 2 5 4 2 2 4 7 16 15 17 14 6 8 9 10 12 7 6 4 7 7 11 18 24 24 24 22 19 16 13 12 12 13 14 15 16 17 19 21 21 18 15
10 4 5 11 12 5 1 5 6 6 6 7 7 12 5 4 3 7 9 24 10 9 14 11 7 7 6 1 4 3 7 12 13 19 23 23 23 22 20 16 14 12 10 8 7 7 9 10 12 14 15 14 13 13
19 15 14 10 14 7 6 7 6 8 5 5 8 8 7 4 2 1 5 15 10 6 5 5 1 4 2 4 3 5 8 14 20 24 19 22 21 20 18 15 13 10 8 7 4 3 5 8 10 11 11 11 11 11
25 14 8 16 6 10 10 7 11 9 8 7 7 5 4 6 5 3 1 5 4 4 3 1 3 4 9 12 13 16 17 18 15 10 7 21 25 21 17 15 13 12 10 7 4 3 5 6 7 9 9 10 11 10
17 17 10 10 7 8 12 11 9 6 5 7 6 5 4 3 3 1 2 3 2 1 1 2 8 12 12 11 11 11 12 10 9 8 8 10 20 21 18 16 14 11 9 7 7 9 9 9 9 9 10 11 12 14
21 13 8 8 8 9 6 7 5 6 3 4 3 4 3 3 2 2 2 1 3 4 4 7 12 13 11 11 10 9 8 7 6 6 8 13 16 15 15 13 10 8 8 9 10 10 10 9 9 9 11 13 14 15
14 8 11 10 14 5 4 6 6 6 4 2 3 3 2 3 6 2 1 3 3 2 6 10 11 8 8 7 8 7 7 9 10 12 14 15 14 12 9 8 9 10 12 11 9 8 6 6 6 8 11 14 16 19
7 18 13 11 13 5 6 4 4 2 4 3 2 2 1 6 1 1 3 5 6 1 6 9 11 6 5 6 10 13 15 17 16 15 14 12 11 9 9 9 9 9 10 10 8 6 6 7 10 13 16 19 21 21
14 17 11 8 8 5 4 3 4 3 1 4 3 2 3 0 2 2 3 11 10 4 4 7 10 9 13 16 19 20 19 17 14 11 8 9 11 12 11 12 11 9 9 10 10 9 10 13 16 19 20 21 23 26
10 9 11 13 5 2 4 4 2 1 4 4 2 0 1 5 3 2 7 7 3 4 11 14 15 14 16 20 18 16 13 10 7 4 3 5 7 9 12 14 12 11 11 10 11 13 16 19 22 24 25 25 26 30
8 16 5 15 7 9 4 3 5 5 3 4 2 4 3 3 2 4 4 3 2 8 17 23 22 20 19 16 12 9 7 5 2 3 5 5 5 7 8 8 9 10 11 13 16 20 22 25 28 30 32 34 33 34
9 21 11 8 5 8 7 6 3 3 4 4 4 3 3 4 5 6 7 3 3 10 16 21 21 19 15 13 9 6 4 1 2 5 7 7 6 6 5 7 9 12 16 19 22 27 30 33 36 38 40 42 43 47
12 23 8 5 5 7 5 5 4 8 5 4 4 4 5 8 16 14 8 2 3 9 13 15 16 14 10 9 6 3 2 5 8 11 12 9 10 11 14 18 21 24 29 32 35 36 37 42 45 47 51 54 56 59
16 14 6 4 2 3 9 11 7 5 2 2 3 1 1 3 11 31 33 12 2 7 9 12 12 11 9 7 4 1 4 5 6 9 13 15 16 19 22 26 30 34 37 41 45 48 51 55 57 59 61 63 64 64
14 10 6 6 4 9 7 14 4 2 2 2 4 4 3 5 6 17 37 32 13 3 7 8 7 6 5 5 4 2 1 4 7 12 20 27 32 36 39 43 46 50 54 57 59 60 60 61 62 62 63 63 62 61
8 10 6 7 4 4 14 16 3 2 4 4 7 7 7 6 8 24 33 35 24 12 4 4 3 2 2 1 4 7 2 11 27 38 45 51 55 57 59 59 58 56 55 56 56 56 56 55 55 54 53 54 55 54
Wind_Direction_500mb
246 242 239 241 244 241 232 235 246 246 236 247 240 234 241 241 241 232 227 221 213 217 237 212 210 179 174 192 186 150 133 193 180 215 218 215 240 213 244 246 259 230 245 226 238 260 271 74 114 226 285 168 237 292
247 242 249 247 243 243 243 243 243 241 238 240 235 234 233 229 227 235 239 241 233 223 238 218 234 231 231 232 218 176 217 154 196 204 203 211 201 220 219 243 227 241 238 263 235 253 260 192 254 259 270 276 285 293
240 245 243 245 250 254 251 247 241 243 243 244 242 237 239 241 233 227 230 233 225 232 246 249 240 244 237 227 226 221 228 227 217 212 209 215 234 201 225 228 253 262 256 254 255 250 257 269 273 271 276 279 283 289
245 247 246 245 246 249 248 254 254 247 244 243 241 241 242 242 243 233 224 225 229 232 258 254 243 231 240 237 236 232 240 242 235 232 225 220 225 206 232 242 248 250 269 253 257 259 266 265 266 267 271 273 275 279
248 247 248 250 252 253 255 251 250 253 254 247 243 243 248 244 243 235 234 233 235 213 250 229 234 229 243 249 244 239 230 235 224 212 214 225 236 240 225 251 247 246 251 258 261 264 265 270 279 284 285 284 275 270
249 247 246 247 252 256 255 255 253 250 251 253 249 246 246 243 233 236 233 236 230 225 237 214 239 257 250 230 220 222 228 228 229 216 218 225 243 221 227 239 243 252 258 260 261 262 262 269 280 286 281 276 263 257
247 248 251 255 256 259 258 251 251 252 251 249 243 245 245 244 236 225 212 209 230 220 222 212 212 233 229 211 214 230 229 226 223 236 227 239 239 223 235 246 252 260 265 265 259 262 269 269 276 281 271 259 254 254
249 248 250 252 255 256 255 253 250 249 250 249 244 240 242 241 239 234 240 242 244 202 203 209 181 206 198 177 198 198 197 217 223 233 244 243 252 232 248 242 253 259 266 267 268 271 263 271 269 268 253 249 252 253
245 253 255 251 252 249 252 255 251 248 247 246 243 240 238 231 228 233 238 238 236 208 212 187 189 214 180 181 189 172 194 218 215 225 231 221 219 226 238 248 253 259 264 269 269 269 267 263 262 254 250 252 253 256
248 261 257 246 241 245 244 247 246 246 245 240 233 226 222 219 225 220 211 202 198 206 211 216 194 192 169 175 188 167 188 228 213 221 220 224 239 244 253 257 261 265 267 265 264 265 264 260 251 250 252 255 259 262
255 253 247 242 238 243 247 244 245 241 238 229 220 217 210 196 187 192 216 196 177 198 194 197 195 156 194 171 173 204 182 200 232 218 209 227 243 244 251 249 253 256 260 261 258 259 262 258 247 245 254 260 262 270
248 246 242 242 240 244 243 241 235 231 228 228 243 207 181 183 201 215 194 181 208 207 164 174 182 188 169 166 166 177 199 188 227 138 222 240 238 237 232 229 238 246 253 259 259 256 255 252 254 257 261 267 273 279
250 248 247 247 242 237 242 240 233 234 233 233 236 199 201 173 204 207 185 188 201 147 169 160 152 165 144 181 179 183 201 210 124 192 233 255 254 228 218 225 232 236 239 241 238 239 244 251 259 267 274 280 283 285
255 250 249 248 245 245 244 237 231 221 222 196 205 211 203 190 208 198 233 212 192 183 167 172 138 154 158 178 177 204 126 146 199 222 239 241 229 226 218 221 220 218 217 220 226 234 246 262 274 282 286 288 290 293
267 257 255 254 248 244 242 235 225 216 223 230 188 211 216 141 95 163 206 199 193 182 152 137 125 147 158 184 185 116 170 212 214 233 241 228 220 213 207 200 206 207 206 214 229 245 262 275 283 288 291 294 297 297
259 244 246 248 242 236 238 228 218 218 221 233 215 50 15 177 151 152 193 231 182 161 150 116 139 185 190 179 176 200 181 210 225 203 199 197 190 190 194 194 198 203 207 226 249 264 276 289 298 302 303 300 299 300
254 219 227 271 251 223 211 206 204 201 202 168 123 128 153 4 353 90 183 196 174 161 181 151 186 183 118 190 197 186 218 253 59 178 196 196 189 183 180 184 198 214 230 250 275 290 297 302 306 308 311 313 306 303
302 270 238 248 249 215 206 179 170 132 97 65 189 100 115 86 55 160 185 175 177 183 176 186 120 195 189 181 204 199 131 199 198 171 178 175 172 178 183 196 214 233 250 263 274 290 302 311 317 317 314 313 310 311
317 313 204 212 199 228 123 35 91 103 81 114 122 123 116 126 162 193 195 181 204 178 148 166 195 193 205 209 29 128 193 193 186 174 175 178 180 190 198 206 220 233 247 262 276 292 309 318 320 322 322 320 317 312
253 253 218 212 198 191 97 60 75 90 105 128 107 103 116 97 79 93 164 180 174 177 216 223 230 48 63 123 106 126 157 165 162 153 178 193 199 202 207 206 207 211 218 223 235 279 323 327 332 335 335 330 325 318
213 225 215 182 159 88 81 52 50 68 102 93 99 86 72 100 84 88 353 182 236 293 203 161 139 137 120 111 115 125 140 152 166 173 212 213 210 209 209 201 195 193 198 203 217 272 297 313 330 345 349 344 338 335
186 165 139 144 95 81 80 59 93 93 87 102 93 81 85 128 96 55 281 203 46 321 315 133 152 143 139 144 145 156 166 186 212 230 236 230 203 203 199 191 187 191 206 231 257 271 284 299 313 320 329 335 337 336
134 131 95 75 89 62 47 68 69 40 93 102 137 133 71 70 6 28 242 312 289 278 227 177 161 166 172 173 175 182 184 194 195 201 191 184 185 181 178 179 189 210 236 255 264 272 281 294 306 325 339 341 337 334
106 69 44 47 37 78 75 49 55 73 68 68 74 85 81 9 344 221 219 69 303 240 179 171 168 157 163 166 171 157 164 178 168 171 171 168 172 176 189 210 231 244 249 259 269 269 277 296 317 327 332 333 333 333
98 13 22 24 26 43 53 41 21 75 82 44 126 190 88 342 108 27 353 17 352 181 178 170 160 153 146 164 169 159 149 143 143 151 159 169 186 205 221 238 255 261 262 254 254 257 280 302 313 321 325 326 328 330
68 7 35 357 6 25 13 91 46 59 38 137 55 19 354 303 95 48 0 338 347 310 215 191 177 162 161 156 152 146 145 147 151 162 188 217 233 242 252 258 268 274 274 255 251 268 289 304 312 315 318 319 321 322
60 1 8 29 26 25 94 76 71 318 67 50 31 13 151 87 97 347 342 357 348 161 169 162 153 147 147 146 146 152 162 171 181 202 244 256 262 267 268 273 278 269 265 260 264 280 293 301 305 309 311 314 316 316
74 26 34 340 19 30 97 46 33 43 29 9 297 37 93 62 113 341 355 356 27 157 160 160 153 150 156 159 159 157 154 144 116 357 338 326 321 309 296 282 274 271 273 277 283 289 296 300 304 306 307 308 313 314
34 354 354 359 21 51 48 32 45 29 359 1 337 33 28 37 27 15 10 13 127 159 170 175 173 163 160 163 161 155 150 123 354 345 346 346 347 337 330 325 315 305 299 296 296 299 301 301 302 302 301 303 307 309
1 358 344 8 16 38 8 14 349 335 333 329 311 334 27 49 32 21 357 312 178 178 179 186 187 183 178 183 182 191 290 326 331 333 337 350 337 326 315 308 305 303 300 300 301 299 296 294 294 292 293 295 297 301
345 349 338 11 54 1 340 339 341 351 348 10 13 36 109 105 64 36 28 23 243 200 189 201 208 208 207 202 214 316 355 353 360 344 336 334 329 322 314 307 303 300 298 297 298 298 298 296 294 293 292 292 294 296
345 10 351 352 344 351 5 6 8 47 39 65 25 29 44 65 70 26 11 12 12 239 210 212 218 222 223 234 263 298 18 70 37 358 339 330 324 318 311 305 301 298 297 296 296 297 298 296 295 294 295 295 295 296
328 344 337 325 322 34 355 351 6 107 69 63 35 43 49 71 82 21 10 13 19 30 90 124 132 105 119 162 163 145 186 310 319 323 325 323 318 314 310 307 303 300 297 295 294 295 297 298 297 297 297 297 297 297
Wind_Speed_850mb
37 44 49 46 45 48 50 47 48 48 48 43 51 54 60 56 52 48 55 56 53 23 26 34 36 19 19 28 11 15 10 6 11 12 10 11 10 14 8 19 13 14 12 13 11 17 26 6 10 15 17 6 14 36
50 49 41 42 50 49 48 49 51 52 58 57 58 53 58 60 48 57 58 49 51 41 19 31 49 45 39 34 30 32 11 13 23 13 11 8 10 7 14 16 23 15 20 13 15 14 19 23 23 31 34 43 61 65
44 39 51 50 46 40 47 51 53 55 56 58 57 52 55 54 60 57 63 54 43 42 46 51 51 65 60 60 49 30 25 34 19 27 12 11 17 11 16 21 32 32 50 28 32 36 51 58 66 65 66 61 62 59
50 49 50 47 46 52 56 52 51 55 57 56 58 61 59 62 61 64 63 60 59 31 12 35 36 43 39 56 67 74 65 33 39 36 24 12 13 25 20 24 23 30 22 28 30 45 50 60 66 66 63 64 60 46
52 52 50 49 48 47 49 51 55 58 56 55 58 61 60 63 62 57 64 77 78 60 6 20 32 41 35 37 45 58 72 65 31 18 13 15 28 18 17 17 21 48 38 26 30 54 45 53 59 53 52 58 52 51
50 51 52 49 48 49 53 53 55 55 57 59 55 55 56 57 55 53 41 65 74 74 19 8 20 34 38 37 35 42 57 62 51 22 14 16 38 20 9 18 47 66 65 66 57 74 68 68 64 60 56 53 49 46
49 48 49 50 51 54 53 58 57 55 55 55 57 56 55 54 54 59 14 23 34 77 25 7 8 21 30 27 25 39 47 36 41 31 18 34 34 23 11 30 49 60 65 64 59 55 60 64 47 42 48 43 43 38
43 39 40 41 42 44 46 49 50 53 52 51 54 54 55 56 56 67 77 65 44 58 25 7 7 6 24 16 17 25 21 27 23 22 25 21 25 28 16 28 53 68 68 61 64 56 59 54 53 50 40 40 38 35
36 40 45 49 48 46 44 43 44 44 46 44 43 46 50 59 62 56 64 65 67 53 9 12 13 11 25 17 17 16 17 10 17 13 19 17 11 15 24 48 54 61 56 59 47 44 38 38 38 39 37 37 33 31
35 39 44 43 47 48 45 38 38 38 37 37 37 31 20 41 52 31 25 34 49 36 24 9 39 13 31 27 21 17 14 8 9 14 14 10 22 57 66 55 56 56 57 44 33 32 34 34 34 34 31 30 29 30
40 40 41 36 33 30 32 38 35 32 29 38 23 27 19 19 45 25 18 22 18 11 21 24 39 14 26 11 10 21 7 7 8 8 11 9 14 28 53 57 66 60 48 37 31 33 30 26 24 27 26 27 29 31
38 37 37 37 34 35 36 37 38 40 44 28 19 26 31 26 16 13 10 11 10 12 15 14 25 36 22 16 8 14 10 10 11 10 7 7 13 30 32 38 40 39 35 30 28 28 26 24 23 23 24 27 31 36
32 34 34 37 39 41 39 41 47 45 42 46 25 22 13 17 16 13 17 8 9 14 21 23 11 25 13 16 8 10 15 11 15 9 8 12 13 26 30 31 31 27 25 23 22 21 20 20 21 24 28 32 39 43
29 33 37 40 44 46 45 43 43 45 44 26 16 15 15 10 12 11 14 12 13 23 44 35 16 9 12 12 7 9 5 7 9 9 15 15 29 34 29 28 27 24 21 20 20 19 19 21 24 28 34 38 42 43
35 38 38 41 45 43 44 46 45 51 35 15 18 14 12 4 5 9 12 7 18 30 49 18 9 13 7 8 8 8 11 10 13 13 17 9 21 26 29 26 25 23 20 18 18 18 20 24 29 29 32 36 40 42
20 24 29 32 42 46 44 46 47 52 24 15 7 0 6 9 8 7 10 6 25 30 28 11 9 9 11 9 13 13 13 14 12 7 8 17 24 28 26 24 24 21 18 16 17 19 20 23 26 30 31 33 33 34
6 11 20 13 19 28 39 46 44 25 14 9 4 7 7 3 7 3 14 12 31 23 7 6 15 13 9 8 11 10 11 12 7 4 11 18 25 27 25 23 20 18 16 14 14 17 19 22 24 26 27 25 26 25
8 7 11 5 3 14 33 18 14 7 7 6 2 5 4 2 2 4 7 16 15 17 14 6 8 9 10 12 7 6 4 7 7 11 18 24 24 24 22 19 16 13 12 12 13 14 15 16 17 19 21 21 18 15
10 4 5 11 12 5 1 5 6 6 6 7 7 12 5 4 3 7 9 24 10 9 14 11 7 7 6 1 4 3 7 12 13 19 23 23 23 22 20 16 14 12 10 8 7 7 9 10 12 14 15 14 13 13
19 15 14 10 14 7 6 7 6 8 5 5 8 8 7 4 2 1 5 15 10 6 5 5 1 4 2 4 3 5 8 14 20 24 19 22 21 20 18 15 13 10 8 7 4 3 5 8 10 11 11 11 11 11
25 14 8 16 6 10 10 7 11 9 8 7 7 5 4 6 5 3 1 5 4 4 3 1 3 4 9 12 13 16 17 18 15 10 7 21 25 21 17 15 13 12 10 7 4 3 5 6 7 9 9 10 11 10
17 17 10 10 7 8 12 11 9 6 5 7 6 5 4 3 3 1 2 3 2 1 1 2 8 12 12 11 11 11 12 10 9 8 8 10 20 21 18 16 14 11 9 7 7 9 9 9 9 9 10 11 12 14
21 13 8 8 8 9 6 7 5 6 3 4 3 4 3 3 2 2 2 1 3 4 4 7 12 13 11 11 10 9 8 7 6 6 8 13 16 15 15 13 10 8 8 9 10 10 10 9 9 9 11 13 14 15
14 8 11 10 14 5 4 6 6 6 4 2 3 3 2 3 6 2 1 3 3 2 6 10 11 8 8 7 8 7 7 9 10 12 14 15 14 12 9 8 9 10 12 11 9 8 6 6 6 8 11 14 16 19
7 18 13 11 13 5 6 4 4 2 4 3 2 2 1 6 1 1 3 5 6 1 6 9 11 6 5 6 10 13 15 17 16 15 14 12 11 9 9 9 9 9 10 10 8 6 6 7 10 13 16 19 21 21
14 17 11 8 8 5 4 3 4 3 1 4 3 2 3 0 2 2 3 11 10 4 4 7 10 9 13 16 19 20 19 17 14 11 8 9 11 12 11 12 11 9 9 10 10 9 10 13 16 19 20 21 23 26
10 9 11 13 5 2 4 4 2 1 4 4 2 0 1 5 3 2 7 7 3 4 11 14 15 14 16 20 18 16 13 10 7 4 3 5 7 9 12 14 12 11 11 10 11 13 16 19 22 24 25 25 26 30
8 16 5 15 7 9 4 3 5 5 3 4 2 4 3 3 2 4 4 3 2 8 17 23 22 20 19 16 12 9 7 5 2 3 5 5 5 7 8 8 9 10 11 13 16 20 22 25 28 30 32 34 33 34
9 21 11 8 5 8 7 6 3 3 4 4 4 3 3 4 5 6 7 3 3 10 16 21 21 19 15 13 9 6 4 1 2 5 7 7 6 6 5 7 9 12 16 19 22 27 30 33 36 38 40 42 43 47
12 23 8 5 5 7 5 5 4 8 5 4 4 4 5 8 16 14 8 2 3 9 13 15 16 14 10 9 6 3 2 5 8 11 12 9 10 11 14 18 21 24 29 32 35 36 37 42 45 47 51 54 56 59
16 14 6 4 2 3 9 11 7 5 2 2 3 1 1 3 11 31 33 12 2 7 9 12 12 11 9 7 4 1 4 5 6 9 13 15 16 19 22 26 30 34 37 41 45 48 51 55 57 59 61 63 64 64
14 10 6 6 4 9 7 14 4 2 2 2 4 4 3 5 6 17 37 32 13 3 7 8 7 6 5 5 4 2 1 4 7 12 20 27 32 36 39 43 46 50 54 57 59 60 60 61 62 62 63 63 62 61
8 10 6 7 4 4 14 16 3 2 4 4 7 7 7 6 8 24 33 35 24 12 4 4 3 2 2 1 4 7 2 11 27 38 45 51 55 57 59 59 58 56 55 56 56 56 56 55 55 54 53 54 55 54
Wind_Direction_850mb
246 242 239 241 244 241 232 235 246 246 236 247 240 234 241 241 241 232 227 221 213 217 237 212 210 179 174 192 186 150 133 193 180 215 218 215 240 213 244 246 259 230 245 226 238 260 271 74 114 226 285 168 237 292
247 242 249 247 243 243 243 243 243 241 238 240 235 234 233 229 227 235 239 241 233 223 238 218 234 231 231 232 218 176 217 154 196 204 203 211 201 220 219 243 227 241 238 263 235 253 260 192 254 259 270 276 285 293
240 245 243 245 250 254 251 247 241 243 243 244 242 237 239 241 233 227 230 233 225 232 246 249 240 244 237 227 226 221 228 227 217 212 209 215 234 201 225 228 253 262 256 254 255 250 257 269 273 271 276 279 283 289
245 247 246 245 246 249 248 254 254 247 244 243 241 241 242 242 243 233 224 225 229 232 258 254 243 231 240 237 236 232 240 242 235 232 225 220 225 206 232 242 248 250 269 253 257 259 266 265 266 267 271 273 275 279
248 247 248 250 252 253 255 251 250 253 254 247 243 243 248 244 243 235 234 233 235 213 250 229 234 229 243 249 244 239 230 235 224 212 214 225 236 240 225 251 247 246 251 258 261 264 265 270 279 284 285 284 275 270
249 247 246 247 252 256 255 255 253 250 251 253 249 246 246 243 233 236 233 236 230 225 237 214 239 257 250 230 220 222 228 228 229 216 218 225 243 221 227 239 243 252 258 260 261 262 262 269 280 286 281 276 263 257
247 248 251 255 256 259 258 251 251 252 251 249 243 245 245 244 236 225 212 209 230 220 222 212 212 233 229 211 214 230 229 226 223 236 227 239 239 223 235 246 252 260 265 265 259 262 269 269 276 281 271 259 254 254
249 248 250 252 255 256 255 253 250 249 250 249 244 240 242 241 239 234 240 242 244 202 203 209 181 206 198 177 198 198 197 217 223 233 244 243 252 232 248 242 253 259 266 267 268 271 263 271 269 268 253 249 252 253
245 253 255 251 252 249 252 255 251 248 247 246 243 240 238 231 228 233 238 238 236 208 212 187 189 214 180 181 189 172 194 218 215 225 231 221 219 226 238 248 253 259 264 269 269 269 267 263 262 254 250 252 253 256
248 261 257 246 241 245 244 247 246 246 245 240 233 226 222 219 225 220 211 202 198 206 211 216 194 192 169 175 188 167 188 228 213 221 220 224 239 244 253 257 261 265 267 265 264 265 264 260 251 250 252 255 259 262
255 253 247 242 238 243 247 244 245 241 238 229 220 217 210 196 187 192 216 196 177 198 194 197 195 156 194 171 173 204 182 200 232 218 209 227 243 244 251 249 253 256 260 261 258 259 262 258 247 245 254 260 262 270
248 246 242 242 240 244 243 241 235 231 228 228 243 207 181 183 201 215 194 181 208 207 164 174 182 188 169 166 166 177 199 188 227 138 222 240 238 237 232 229 238 246 253 259 259 256 255 252 254 257 261 267 273 279
250 248 247 247 242 237 242 240 233 234 233 233 236 199 201 173 204 207 185 188 201 147 169 160 152 165 144 181 179 183 201 210 124 192 233 255 254 228 218 225 232 236 239 241 238 239 244 251 259 267 274 280 283 285
255 250 249 248 245 245 244 237 231 221 222 196 205 211 203 190 208 198 233 212 192 183 167 172 138 154 158 178 177 204 126 146 199 222 239 241 229 226 218 221 220 218 217 220 226 234 246 262 274 282 286 288 290 293
267 257 255 254 248 244 242 235 225 216 223 230 188 211 216 141 95 163 206 199 193 182 152 137 125 147 158 184 185 116 170 212 214 233 241 228 220 213 207 200 206 207 206 214 229 245 262 275 283 288 291 294 297 297
259 244 246 248 242 236 238 228 218 218 221 233 215 50 15 177 151 152 193 231 182 161 150 116 139 185 190 179 176 200 181 210 225 203 199 197 190 190 194 194 198 203 207 226 249 264 276 289 298 302 303 300 299 300
254 219 227 271 251 223 211 206 204 201 202 168 123 128 153 4 353 90 183 196 174 161 181 151 186 183 118 190 197 186 218 253 59 178 196 196 189 183 180 184 198 214 230 250 275 290 297 302 306 308 311 313 306 303
302 270 238 248 249 215 206 179 170 132 97 65 189 100 115 86 55 160 185 175 177 183 176 186 120 195 189 181 204 199 131 199 198 171 178 175 172 178 183 196 214 233 250 263 274 290 302 311 317 317 314 313 310 311
317 313 204 212 199 228 123 35 91 103 81 114 122 123 116 126 162 193 195 181 204 178 148 166 195 193 205 209 29 128 193 193 186 174 175 178 180 190 198 206 220 233 247 262 276 292 309 318 320 322 322 320 317 312
253 253 218 212 198 191 97 60 75 90 105 128 107 103 116 97 79 93 164 180 174 177 216 223 230 48 63 123 106 126 157 165 162 153 178 193 199 202 207 206 207 211 218 223 235 279 323 327 332 335 335 330 325 318
213 225 215 182 159 88 81 52 50 68 102 93 99 86 72 100 84 88 353 182 236 293 203 161 139 137 120 111 115 125 140 152 166 173 212 213 210 209 209 201 195 193 198 203 217 272 297 313 330 345 349 344 338 335
186 165 139 144 95 81 80 59 93 93 87 102 93 81 85 128 96 55 281 203 46 321 315 133 152 143 139 144 145 156 166 186 212 230 236 230 203 203 199 191 187 191 206 231 257 271 284 299 313 320 329 335 337 336
134 131 95 75 89 62 47 68 69 40 93 102 137 133 71 70 6 28 242 312 289 278 227 177 161 166 172 173 175 182 184 194 195 201 191 184 185 181 178 179 189 210 236 255 264 272 281 294 306 325 339 341 337 334
106 69 44 47 37 78 75 49 55 73 68 68 74 85 81 9 344 221 219 69 303 240 179 171 168 157 163 166 171 157 164 178 168 171 171 168 172 176 189 210 231 244 249 259 269 269 277 296 317 327 332 333 333 333
98 13 22 24 26 43 53 41 21 75 82 44 126 190 88 342 108 27 353 17 352 181 178 170 160 153 146 164 169 159 149 143 143 151 159 169 186 205 221 238 255 261 262 254 254 257 280 302 313 321 325 326 328 330
68 7 35 357 6 25 13 91 46 59 38 137 55 19 354 303 95 48 0 338 347 310 215 191 177 162 161 156 152 146 145 147 151 162 188 217 233 242 252 258 268 274 274 255 251 268 289 304 312 315 318 319 321 322
60 1 8 29 26 25 94 76 71 318 67 50 31 13 151 87 97 347 342 357 348 161 169 162 153 147 147 146 146 152 162 171 181 202 244 256 262 267 268 273 278 269 265 260 264 280 293 301 305 309 311 314 316 316
74 26 34 340 19 30 97 46 33 43 29 9 297 37 93 62 113 341 355 356 27 157 160 160 153 150 156 159 159 157 154 144 116 357 338 326 321 309 296 282 274 271 273 277 283 289 296 300 304 306 307 308 313 314
34 354 354 359 21 51 48 32 45 29 359 1 337 33 28 37 27 15 10 13 127 159 170 175 173 163 160 163 161 155 150 123 354 345 346 346 347 337 330 325 315 305 299 296 296 299 301 301 302 302 301 303 307 309
1 358 344 8 16 38 8 14 349 335 333 329 311 334 27 49 32 21 357 312 178 178 179 186 187 183 178 183 182 191 290 326 331 333 337 350 337 326 315 308 305 303 300 300 301 299 296 294 294 292 293 295 297 301
345 349 338 11 54 1 340 339 341 351 348 10 13 36 109 105 64 36 28 23 243 200 189 201 208 208 207 202 214 316 355 353 360 344 336 334 329 322 314 307 303 300 298 297 298 298 298 296 294 293 292 292 294 296
345 10 351 352 344 351 5 6 8 47 39 65 25 29 44 65 70 26 11 12 12 239 210 212 218 222 223 234 263 298 18 70 37 358 339 330 324 318 311 305 301 298 297 296 296 297 298 296 295 294 295 295 295 296
328 344 337 325 322 34 355 351 6 107 69 63 35 43 49 71 82 21 10 13 19 30 90 124 132 105 119 162 163 145 186 310 319 323 325 323 318 314 310 307 303 300 297 295 294 295 297 298 297 297 297 297 297 297